     2.10           OBSERVATION DATA    G (GPS)             RINEX VERSION / TYPE
teqc 2002Apr3 Duncan Agnew 20050511 23:58:23UTC             PGM / RUN BY / DATE
OSX 5.3|G3|cc|OSX 5.3+|G3+                                  COMMENT
BIT 2 OF LLI FLAGS DATA COLLECTED UNDER A/S CONDITION       COMMENT
IVPN 106                                                    MARKER NAME
6892                                                        MARKER NUMBER
Juan Vargas Nolte Engineering                               OBSERVER / AGENCY
220136892 TRIMBLE 4800 NP 1.20 / SP 1.43                    REC # / TYPE / VERS
N/A TRM4800                                                 ANT # / TYPE
 -2296183.0000 -4828662.0000  3465594.0000                  APPROX POSITION XYZ
        2.0000        0.0000        0.0000                  ANTENNA: DELTA H/E/N
     1     1                                                WAVELENGTH FACT L1/2
     7    C1    L1    L2    P1    P2    S1    S2            # / TYPES OF OBSERV
SNR is mapped to RINEX snr flag value [1-9]                 COMMENT
L1: 3 -> 1; 8 -> 5; 40 -> 9                                 COMMENT
L2: 1 -> 1; 5 -> 5; 60 -> 9                                 COMMENT
  2004     7     7    16    33    0.0000000     GPS         TIME OF FIRST OBS
                                                            END OF HEADER
 04  7  7 16 33  0.0000000  0  7G 3G 9G14G15G18G21G22
  22326255.6334      -2224.39559     -1615.32757                  22326254.5644
        47.2504         34.7504
  23570355.8094     -18359.27059    -11941.16357                  23570355.2844
        45.0004         27.7504
  22200106.1894    -105313.52759    -67456.06157                  22200104.7104
        48.5004         35.2504
  20642930.0074     -21505.55959    -13937.84258                  20642927.8784
        52.5004         42.5004
  21147699.8264     133536.79759     85361.70858                  21147696.9454
        52.0004         41.0004
  20981246.7504     129252.82859     83816.53458                  20981243.7994
        52.2504         41.5004
  20891419.2464      50198.83659     31816.76258                  20891415.0334
        52.2504         43.0004
 04  7  7 16 33 10.0000000  0  7G 3G 9G14G15G18G21G22
  22326136.3264      -2850.73849     -2103.41547                  22326135.3984
        47.5004         33.5004
  23569669.5914     -21966.49649    -14751.96547                  23569668.9244
        45.5004         26.7504
  22196385.0314    -124870.04749    -82694.90047                  22196382.6994
        48.5004         35.2504
  20642124.7604     -25735.97349    -17234.27848                  20642122.9924
        52.0004         42.0004
  21152280.0044     157605.56349    104116.57248                  21152276.8844
        51.5004         40.7504
  20985672.9944     152513.81649    101941.95748                  20985669.8304
        52.0004         40.5004
  20893102.6884      59044.76649     38709.68848                  20893098.6134
        52.5004         42.0004
 04  7  7 16 33 20.0000000  0  7G 3G 9G14G15G18G21G22
  22326020.7464      -3459.11349     -2577.46747                  22326019.6874
        47.0004         35.0004
  23568984.5394     -25565.79749    -17556.61347                  23568984.2024
        45.5004         27.5004
  22192662.8924    -144430.71549    -97936.97147                  22192660.4044
        48.5004         36.0004
  20641317.8364     -29977.51249    -20539.36148                  20641315.9844
        52.5004         42.5004
  21156856.0164     181653.46549    122855.19548                  21156853.2524
        52.0004         41.2504
  20990099.2364     175774.39149    120067.07748                  20990096.1094
        52.2504         41.5004
  20894783.7884      67877.80149     45592.56948                  20894779.3314
        52.7504         42.7504
 04  7  7 16 33 30.0000000  0  7G 3G 9G14G15G18G21G22
  22325911.4404      -4034.64549     -3025.93247                  22325909.9944
        47.0004         34.7504
  23568303.4474     -29142.37549    -20343.53847                  23568303.4104
        45.0004         28.2504
  22188942.1544    -163980.74249   -113170.75047                  22188940.2234
        48.5004         35.5004
  20640511.1454     -34215.38349    -23841.59648                  20640509.1424
        52.2504         42.7504
  21161431.3264     205695.17649    141588.98948                  21161427.9274
        51.0004         41.2504
  20994528.7674     199049.25449    138203.32848                  20994525.3314
        51.5004         41.7504
  20896464.7394      76712.66449     52476.88348                  20896460.3204
        52.2504         42.5004
 04  7  7 16 33 40.0000000  0  7G 3G 9G14G15G18G21G22
  22325809.8324      -4567.96149     -3441.51647                  22325808.6534
        47.2504         35.2504
  23567629.1814     -32686.77749    -23105.39747                  23567628.2414
        44.5004         29.0004
  22185225.8694    -183510.69149   -128388.87447                  22185223.9074
        48.7504         36.2504
  20639707.4544     -38440.19149    -27133.66248                  20639705.4604
        52.0004         43.0004
  21166006.8444     229739.93049    160325.14948                  21166003.3164
        49.7504         41.2504
  20998962.2104     222347.70749    156357.94548                  20998958.8744
        50.0004         42.2504
  20898148.3754      85558.66849     59369.86948                  20898143.6044
        52.5004         43.5004
 04  7  7 16 33 50.0000000  0  7G 3G 9G14G15G18G21G22
  22325716.6474      -5055.27349     -3821.21547                  22325715.9144
        46.2504         34.0004
  23566961.3074     -36195.15249    -25839.21347                  23566960.9174
        44.0004         28.5004
  22181513.9644    -203016.68749   -143588.34047                  22181511.9224
        48.7504         36.7504
  20638906.6444     -42648.09449    -30412.53348                  20638904.9614
        52.0004         42.5004
  21170583.6714     253791.53149    179066.65848                  21170580.4734
        51.2504         42.0004
  21003400.9754     245673.54749    174533.91848                  21003397.7604
        52.0004         41.2504
  20899834.5374      94419.54349     66274.44348                  20899830.0994
        52.0004         43.2504
 04  7  7 16 34  0.0000000  0  7G 3G 9G14G15G18G21G22
  22325632.7004      -5498.37149     -4166.51447                  22325631.2994
        45.7504         34.5004
  23566300.8304     -39669.22749    -28546.26347                  23566299.9634
        42.0004         28.2504
  22177806.0654    -222500.44149   -158770.48847                  22177804.6314
        49.5004         36.0004
  20638108.7874     -46840.85949    -33679.63048                  20638107.3244
        51.7504         42.5004
  21175161.3694     277848.02749    197811.96348                  21175158.4934
        49.2504         41.5004
  21007844.5374     269025.04749    192729.87348                  21007841.3544
        49.0004         41.5004
  20901523.1614     103293.47749     73189.18548                  20901518.7284
        51.7504         43.0004
 04  7  7 16 34 10.0000000  0  7G 3G 9G14G15G18G21G22
  22325556.6244      -5896.93049     -4477.07347                  22325555.0214
        46.2504         34.5004
  23565645.9704     -43108.54749    -31226.25747                  23565645.4994
        44.0004         28.2504
  22174102.8894    -241961.67649   -173935.07347                  22174101.3664
        48.5004         36.5004
  20637313.8024     -51018.09049    -36934.61548                  20637311.9694
        52.0004         42.5004
  21179740.4314     301909.76649    216561.36948                  21179737.0874
        47.5004         41.7504
  21012293.3284     292402.53949    210946.08848                  21012290.0484
        47.5004         41.2504
  20903214.1894     112180.66849     80114.27048                  20903210.3364
        52.2504         43.0004
 04  7  7 16 34 20.0000000  0  7G 3G 9G14G15G18G21G22
  22325489.5554      -6249.57849     -4751.87347                  22325487.9564
        47.5004         33.7504
  23564998.0024     -46511.78149    -33878.13447                  23564998.2174
        44.5004         27.0004
  22170404.1094    -261398.93749   -189080.98847                  22170402.2904
        48.5004         35.0004
  20636522.4104     -55178.42249    -40176.43048                  20636520.0624
        52.2504         41.5004
  21184320.3704     325977.95349    235315.79948                  21184317.2124
        47.2504         40.7504
  21016746.9694     315807.21549    229183.48248                  21016743.8124
        47.5004         40.5004
  20904908.1304     121082.39549     87050.68248                  20904904.1174
        52.0004         42.2504
 04  7  7 16 34 30.0000000  0  7G 3G 9G14G15G18G21G22
  22325431.5524      -6556.60949     -4991.11647                  22325429.9774
        47.5004         35.2504
  23564357.5554     -49879.05149    -36501.94047                  23564357.3234
        44.7504         28.7504
  22166709.6334    -280812.47349   -204208.40747                  22166708.1604
        49.0004         36.0004
  20635733.4134     -59322.10249    -43405.26648                  20635731.5424
        52.0004         42.0004
  21188901.3394     350052.34049    254075.04348                  21188898.1664
        48.7504         41.2504
  21021205.7334     339238.85949    247441.89848                  21021202.6524
        48.7504         41.0004
  20906605.0944     129998.37949     93998.20048                  20906600.2354
        52.5004         43.0004
 04  7  7 16 34 40.0000000  0  7G 3G 9G14G15G18G21G22
  22325380.0554      -6826.26649     -5201.24547                  22325379.0344
        48.2504         35.5004
  23563723.1374     -53218.69549    -39104.26647                  23563721.5494
        45.2504         28.7504
  22163018.1724    -300210.59049   -219323.81347                  22163017.0194
        49.0004         36.0004
  20634946.8834     -63457.46149    -46627.61848                  20634944.5914
        52.5004         43.0004
  21193482.1314     374124.37549    272832.47248                  21193479.0854
        51.0004         41.0004
  21025668.2694     362689.07449    265714.77448                  21025665.0804
        52.0004         41.7504
  20908302.6664     138920.09049    100950.17948                  20908298.0294
        53.0004         43.0004
 04  7  7 16 34 50.0000000  0  7G 3G 9G14G15G18G21G22
  22325337.0494      -7053.00449     -5377.92847                  22325336.2404
        46.7504         35.5004
  23563092.9924     -56525.00849    -41680.60947                  23563092.7124
        45.0004         28.5004
  22159331.2414    -319587.52749   -234422.71147                  22159329.3024
        49.0004         36.7504
  20634162.6074     -67578.77349    -49839.02948                  20634160.0094
        53.0004         43.2504
  21198063.5794     398199.67649    291592.43148                  21198060.4364
        47.2504         42.0004
  21030135.4394     386163.42649    284006.47448                  21030132.3924
        47.5004         41.5004
  20910002.7144     147853.17649    107911.02748                  20909998.1614
        52.0004         43.0004
 04  7  7 16 35  0.0000000  0  7G 3G 9G14G15G18G21G22
  22325302.1194      -7235.50449     -5520.12947                  22325300.8434
        47.0004         34.7504
  23562470.7544     -59796.59049    -44229.89647                  23562469.8624
        45.5004         28.5004
  22155648.4764    -338942.03149   -249504.13947                  22155646.6874
        49.0004         36.5004
  20633381.3484     -71684.76249    -53038.50948                  20633379.0524
        51.5004         42.7504
  21202645.6284     422279.46549    310355.89048                  21202642.5594
        50.0004         41.0004
  21034607.3474     409663.23049    302317.98548                  21034604.2944
        50.0004         41.5004
  20911704.7784     156798.86749    114881.68348                  20911700.3314
        52.2504         43.0004
 04  7  7 16 35 10.0000000  0  7G 3G 9G14G15G18G21G22
  22325275.2954      -7376.75049     -5630.17847                  22325274.0774
        48.2504         34.5004
  23561853.8014     -63036.38749    -46754.42347                  23561853.1964
        45.0004         27.5004
  22151968.7524    -358276.90649   -264570.25747                  22151967.0274
        49.2504         36.2504
  20632602.0884     -75778.35249    -56228.31648                  20632600.1194
        52.2504         42.5004
  21207228.3744     446360.75849    329120.53648                  21207225.0614
        49.2504         41.2504
  21039083.3794     433185.61749    320647.10948                  21039080.1804
        50.5004         42.0004
  20913409.0704     165754.11349    121859.80048                  20913404.4314
        52.2504         43.0004
 04  7  7 16 35 20.0000000  0  7G 3G 9G14G15G18G21G22
  22325257.1904      -7475.28949     -5706.97147                  22325255.0734
        47.5004         34.0004
  23561243.5474     -66242.89549    -49252.96947                  23561242.7634
        45.0004         28.0004
  22148293.6274    -377590.74649   -279619.99247                  22148291.7464
        49.5004         36.7504
  20631825.8494     -79858.05549    -59407.30248                  20631823.8314
        52.0004         42.5004
  21211811.4394     470444.78549    347887.30548                  21211808.0454
        47.2504         41.2504
  21043563.9014     456731.94149    338994.87448                  21043560.3674
        47.5004         41.7504
  20915115.3404     174720.30149    128846.44148                  20915111.0734
        52.2504         43.0004
 04  7  7 16 35 30.0000000  0  7G 3G 9G14G15G18G21G22
  22325245.2324      -7535.87549     -5754.19847                  22325243.2334
        47.5004         34.0004
  23560638.8814     -69420.66849    -51729.17247                  23560638.0394
        44.7504         27.2504
  22144621.5024    -396888.22349   -294656.97947                  22144619.7584
        49.0004         36.0004
  20631051.2784     -83928.48849    -62579.06248                  20631048.9574
        52.5004         42.7504
  21216394.2154     494526.89549    366652.57048                  21216390.8374
        51.0004         40.7504
  21048048.4954     480297.53949    357357.67048                  21048045.3114
        51.0004         41.2504
  20916822.5854     183692.69549    135837.90348                  20916818.2474
        53.0004         42.5004
 04  7  7 16 35 40.0000000  0  7G 3G 9G14G15G18G21G22
  22325241.5604      -7555.16049     -5769.22947                  22325239.8504
        49.0004         34.2504
  23560040.8084     -72566.38749    -54180.35947                  23560040.3284
        44.5004         27.7504
  22140952.8794    -416165.92249   -309678.54647                  22140951.0424
        49.2504         37.0004
  20630279.0724     -87986.34849    -65741.02648                  20630277.2174
        53.0004         42.2504
  21220977.0194     518610.31349    385418.86648                  21220973.7474
        49.5004         40.5004
  21052537.3004     503885.68449    375738.03248                  21052534.2014
        50.0004         41.0004
  20918531.6104     192674.45749    142836.68248                  20918527.1984
        53.0004         42.5004
 04  7  7 16 35 50.0000000  0  7G 3G 9G14G15G18G21G22
  22325245.2274      -7535.58649     -5753.96547                  22325243.9514
        47.5004         35.0004
  23559447.4664     -75682.41449    -56608.42947                  23559447.0084
        44.5004         28.0004
  22137287.8664    -435426.20749   -324686.55547                  22137286.2424
        49.7504         37.0004
  20629508.9254     -92033.96149    -68895.00548                  20629506.9064
        52.7504         42.5004
  21225559.7274     542692.53149    404184.22648                  21225556.3364
        47.2504         40.7504
  21057029.4044     527493.82049    394133.97548                  21057026.4254
        47.5004         41.2504
  20920242.4764     201663.13349    149840.84648                  20920238.2084
        52.0004         43.7504
 04  7  7 16 36  0.0000000  0  7G 3G 9G14G15G18G21G22
  22325256.3564      -7476.80549     -5708.15847                  22325255.1054
        47.5004         35.0004
  23558860.0894     -78768.37149    -59013.08947                  23558859.5154
        45.5004         28.0004
  22133626.2154    -454668.68049   -339680.68447                  22133624.3114
        48.5004         37.0004
  20628740.4514     -96071.00049    -72040.75848                  20628738.4124
        53.0004         42.7504
  21230142.3394     566773.89849    422948.91348                  21230139.3414
        47.2504         41.5004
  21061526.0004     551122.36349    412545.80948                  21061522.6294
        47.7504         41.5004
  20921954.1004     210659.01249    156850.62048                  20921949.7594
        52.7504         43.7504
 04  7  7 16 36 10.0000000  0  7G 3G 9G14G15G18G21G22
  22325273.6624      -7383.46949     -5635.43347                  22325272.9494
        48.2504         35.7504
  23558278.0464     -81828.84449    -61397.85947                  23558276.9404
        44.7504         28.2504
  22129967.0384    -473898.02349   -354664.57647                  22129965.1464
        49.0004         36.7504
  20627973.7714    -100102.19149    -75181.94448                  20627971.3304
        52.7504         43.0004
  21234723.4824     590849.47349    441709.09948                  21234720.3394
        48.7504         41.7504
  21066025.5464     574766.55549    430969.83948                  21066022.2394
        49.0004         42.0004
  20923666.7134     219657.25449    163862.22948                  20923662.6034
        53.0004         44.0004
 04  7  7 16 36 20.0000000  0  7G 3G 9G14G15G18G21G22
  22325299.6914      -7249.56649     -5531.09547                  22325298.4824
        48.2504         35.2504
  23557701.2304     -84857.77749    -63758.06447                  23557700.1074
        45.5004         27.7504
  22126310.8654    -493108.14849   -369633.48447                  22126309.1644
        49.2504         37.2504
  20627208.7494    -104121.41849    -78313.80848                  20627207.1064
        53.0004         43.5004
  21239305.3664     614925.33249    460469.50548                  21239301.8164
        52.2504         41.0004
  21070528.5794     598432.46549    449410.80548                  21070525.8194
        51.5004         41.2504
  20925380.1854     228663.91449    170880.41848                  20925376.0214
        53.0004         43.5004
 04  7  7 16 36 30.0000000  0  7G 3G 9G14G15G18G21G22
  22325331.9704      -7076.11349     -5395.94247                  22325331.5044
        47.0004         35.0004
  23557131.0404     -87856.18749    -66094.47547                  23557129.7024
        44.7504         26.7504
  22122658.8894    -512300.09449   -384588.24247                  22122657.2824
        48.7504         37.0004
  20626445.7684    -108129.74249    -81437.17448                  20626443.5244
        52.7504         43.0004
  21243886.5284     639000.34049    479229.23748                  21243883.1594
        51.7504         40.7504
  21075036.1564     622118.99649    467867.82348                  21075033.2184
        52.5004         41.0004
  20927095.4084     237677.79349    177904.21148                  20927091.5134
        52.0004         43.0004
 04  7  7 16 36 40.0000000  0  7G 3G 9G14G15G18G21G22
  22325372.8624      -6864.50049     -5231.04747                  22325371.4994
        46.7504         35.0004
  23556566.1224     -90825.34849    -68408.14247                  23556564.8524
        44.5004         27.7504
  22119010.4144    -531475.14149   -399529.81847                  22119008.3644
        48.0004         37.0004
  20625685.1844    -112128.48849    -84553.07948                  20625682.8914
        52.7504         42.2504
  21248467.3174     663073.04349    497987.17748                  21248464.2334
        48.5004         41.0004
  21079547.2864     645824.73449    486339.81148                  21079544.0714
        50.0004         40.7504
  20928812.0454     246697.50049    184932.55048                  20928807.9734
        52.7504         43.0004
 04  7  7 16 36 50.0000000  0  7G 3G 9G14G15G18G21G22
  22325420.2964      -6612.25049     -5034.48047                  22325419.5314
        46.7504         33.5004
  23556007.0584     -93762.75849    -70697.06947                  23556005.3804
        45.0004         26.7504
  22115365.1474    -550630.82449   -414456.33447                  22115363.1734
        48.5004         36.0004
  20624926.0064    -116115.14549    -87659.57548                  20624924.2054
        53.0004         42.0004
  21253048.4364     687145.74649    516745.10848                  21253044.9544
        47.2504         40.7504
  21084062.3694     669552.08649    504828.63748                  21084059.3444
        47.5004         40.5004
  20930529.9044     255725.42649    191967.28648                  20930525.8184
        52.7504         42.2504
 04  7  7 16 37  0.0000000  0  7G 3G 9G14G15G18G21G22
  22325475.5774      -6320.06649     -4806.79747                  22325474.9394
        47.0004         34.5004
  23555453.9404     -96668.93049    -72961.58847                  23555452.5374
        45.0004         27.2504
  22111723.3444    -569767.70349   -429368.17447                  22111721.2984
        49.5004         36.7504
  20624169.5424    -120090.34049    -90757.11648                  20624167.7444
        52.2504         42.7504
  21257629.0944     711217.76649    535502.54448                  21257625.9544
        47.2504         41.0004
  21088581.7024     693300.41849    523333.83648                  21088578.2034
        47.5004         41.5004
  20932249.0344     264760.83649    199007.87948                  20932244.9104
        52.0004         43.7504
 04  7  7 16 37 10.0000000  0  7G 3G 9G14G15G18G21G22
  22325538.6454      -5989.60549     -4549.30347                  22325537.7024
        47.2504         34.7504
  23554906.0084     -99545.58649    -75203.09947                  23554905.1564
        45.2504         27.5004
  22108085.3054    -588887.46149   -444266.67247                  22108083.2694
        49.2504         36.7504
  20623415.1734    -124055.75849    -93847.05648                  20623413.0884
        53.0004         43.2504
  21262209.2704     735287.26649    554257.97848                  21262206.0114
        47.2504         40.7504
  21093104.6464     717068.01249    541854.02248                  21093101.1394
        47.5004         41.0004
  20933969.6904     273801.97349    206052.91548                  20933965.1054
        52.2504         43.5004
 04  7  7 16 37 20.0000000  0  7G 3G 9G14G15G18G21G22
  22325609.1874      -5619.05949     -4260.56847                  22325608.6814
        46.5004         35.7504
  23554365.1724    -102390.86749    -77420.23947                  23554364.3054
        44.0004         26.7504
  22104450.5214    -607988.24649   -459150.39447                  22104448.4734
        49.2504         37.0004
  20622663.0424    -128009.54349    -96927.92548                  20622660.5714
        52.7504         43.2504
  21266789.3134     759356.02749    573012.85148                  21266786.6604
        47.2504         41.5004
  21097631.5874     740856.71149    560390.66548                  21097627.8754
        47.5004         41.2504
  20935691.6654     282850.52749    213103.73648                  20935687.4444
        52.7504         43.7504
 04  7  7 16 37 30.0000000  0  7G 3G 9G14G15G18G21G22
  22325688.2254      -5205.27349     -3938.13647                  22325687.3264
        46.7504         35.0004
  23553829.8254    -105201.49649    -79610.32947                  23553829.1614
        44.7504         27.0004
  22100819.7014    -627066.80949   -474016.79747                  22100817.7764
        48.2504         37.0004
  20621913.2684    -131948.49649    -99997.23748                  20621911.2354
        52.7504         42.5004
  21271370.2004     783427.16849    591769.58048                  21271367.4424
        47.2504         41.0004
  21102162.5534     764669.63749    578946.18048                  21102159.2874
        47.5004         41.0004
  20937415.5004     291909.64849    220162.79248                  20937411.0444
        52.0004         43.5004
 04  7  7 16 37 40.0000000  0  7G 3G 9G14G15G18G21G22
  22325774.4054      -4751.90249     -3584.85747                  22325773.3474
        45.7504         34.0004
  23553301.6614    -107981.02749    -81776.22247                  23553300.3674
        44.5004         25.7504
  22097192.6904    -646126.67249   -488868.62147                  22097190.9184
        48.0004         36.7504
  20621165.9884    -135876.15649   -103057.75248                  20621163.7544
        52.5004         42.5004
  21275950.3404     807497.05549    610525.32648                  21275947.0004
        48.2504         41.2504
  21106698.1064     788503.12549    597517.71648                  21106694.4614
        48.5004         41.0004
  20939140.5544     300975.59849    227227.17348                  20939136.6034
        52.2504         43.2504
 04  7  7 16 37 50.0000000  0  7G 3G 9G14G15G18G21G22
  22325868.8594      -4256.95749     -3199.18347                  22325867.5974
        46.0004         34.2504
  23552778.3454    -110727.39549    -83916.23247                  23552777.2134
        43.7504         26.2504
  22093569.7964    -665165.85549   -503704.34247                  22093567.2654
        47.7504         36.7504
  20620421.2594    -139790.55149   -106107.93648                  20620418.7844
        52.5004         43.0004
  21280530.9204     831567.56349    629281.55348                  21280527.6754
        50.0004         41.0004
  21111237.8244     812359.10249    616106.76448                  21111234.4754
        50.5004         41.0004
  20940867.6894     310050.38349    234298.41948                  20940863.6024
        52.5004         43.0004
 04  7  7 16 38  0.0000000  0  7G 3G 9G14G15G18G21G22
  22325970.4394      -3721.61349     -2782.03647                  22325969.1604
        46.0004         33.7504
  23552261.8034    -113441.72749    -86031.29447                  23552260.6034
        43.7504         26.0004
  22089950.2794    -684185.50849   -518524.84347                  22089948.3404
        48.0004         35.5004
  20619678.4894    -143692.81249   -109148.65248                  20619676.7124
        53.0004         42.2504
  21285111.1134     855637.46949    648037.31848                  21285107.8914
        51.0004         39.5004
  21115781.5634     836236.43449    634712.48448                  21115778.6564
        50.7504         39.5004
  20942596.1674     319132.64149    241375.51348                  20942591.6634
        52.7504         42.0004
 04  7  7 16 38 10.0000000  0  7G 3G 9G14G15G18G21G22
  22326081.6134      -3138.98449     -2328.04247                  22326080.3484
        46.2504         34.7504
  23551753.1494    -116117.12549    -88116.03447                  23551751.6894
        44.7504         27.7504
  22086335.8424    -703178.77049   -533324.78847                  22086333.7404
        48.0004         37.2504
  20618939.6474    -147576.05949   -112174.55848                  20618937.2794
        52.7504         43.0004
  21289692.7384     879713.49649    666797.84948                  21289689.4374
        52.2504         41.0004
  21120330.8164     860141.91049    653340.11248                  21120327.4744
        51.7504         40.5004
  20944327.0514     328229.17249    248463.70748                  20944322.7144
        53.2504         43.2504
 04  7  7 16 38 20.0000000  0  7G 3G 9G14G15G18G21G22
  22326200.7954      -2513.15649     -1840.37347                  22326199.6654
        46.0004         34.5004
  23551250.4244    -118757.56649    -90173.53447                  23551249.5104
        44.5004         26.7504
  22082725.7214    -722149.57449   -548107.21147                  22082723.7414
        47.5004         36.7504
  20618203.4824    -151444.28149   -115188.75848                  20618201.3614
        53.0004         43.0004
  21294274.7674     903791.54349    685559.95748                  21294271.2204
        52.0004         41.2504
  21124884.3754     884071.52349    671986.54948                  21124881.0344
        52.5004         41.0004
  20946059.8814     337335.91449    255559.86848                  20946056.0084
        52.2504         43.0004
 04  7  7 16 38 30.0000000  0  7G 3G 9G14G15G18G21G22
  22326328.4224      -1840.32049     -1316.09147                  22326327.6514
        46.5004         35.0004
  23550755.5654    -121359.17649    -92200.75847                  23550754.8614
        43.0004         26.7504
  22079121.0154    -741094.09449   -562869.16147                  22079118.8514
        48.7504         37.2504
  20617470.7614    -155293.66449   -118188.27348                  20617468.7794
        52.2504         43.7504
  21298857.9394     927875.25449    704326.48048                  21298854.4314
        52.0004         41.5004
  21129443.3604     908028.99249    690654.69748                  21129440.4664
        51.5004         41.5004
  20947795.6654     346456.49249    262666.81948                  20947791.0384
        52.2504         43.5004
 04  7  7 16 38 40.0000000  0  7G 3G 9G14G15G18G21G22
  22326465.1174      -1121.13749      -755.68547                  22326464.4614
        46.7504         35.0004
  23550267.3544    -123922.59049    -94198.22747                  23550266.4664
        43.5004         26.7504
  22075520.3834    -760012.89149   -577611.07447                  22075518.3914
        48.7504         37.5004
  20616742.0234    -159124.77749   -121173.55948                  20616739.4474
        52.7504         42.7504
  21303441.5084     951963.88749    723096.83848                  21303438.1184
        52.7504         41.0004
  21134007.3104     932013.64849    709344.02848                  21134004.0744
        52.2504         41.0004
  20949533.8444     355590.28949    269784.06248                  20949529.3144
        52.5004         43.2504
 04  7  7 16 38 50.0010000  0  7G 3G 9G14G15G18G21G22
  22326610.9454       -357.76649      -160.84947                  22326609.6204
        46.0004         34.5004
  23549787.1774    -126450.22749    -96167.81247                  23549785.8454
        43.0004         26.5004
  22071924.6594    -778910.07049   -592336.14447                  22071922.6534
        48.0004         37.0004
  20616015.7744    -162940.30549   -124146.70148                  20616013.7474
        52.7504         42.7504
  21308026.7554     976057.64849    741871.19248                  21308023.5634
        52.2504         41.0004
  21138576.5224     956025.55549    728054.59848                  21138573.1864
        52.5004         40.7504
  20951274.0824     364735.88349    276910.49648                  20951270.0074
        53.0004         43.2504
 04  7  7 16 39  0.0010000  0  7G 3G 9G14G15G18G21G22
  22326765.0164        452.91049       470.84847                  22326764.0464
        46.7504         35.0004
  23549313.3804    -128938.27749    -98106.56547                  23549312.4844
        43.7504         27.2504
  22068334.2474    -797778.62949   -607038.90047                  22068331.9904
        49.2504         37.0004
  20615293.4984    -166736.16849   -127104.50848                  20615291.5274
        52.7504         42.7504
  21312611.8704    1000154.96149    760648.30948                  21312608.9704
        52.0004         40.7504
  21143150.7354     980063.26249    746785.27448                  21143147.5834
        52.7504         41.5004
  20953016.6164     373894.68449    284047.22848                  20953012.4854
        52.7504         43.0004
 04  7  7 16 39 10.0010000  0  7G 3G 9G14G15G18G21G22
  22326928.6934       1313.83249      1141.69447                  22326927.6184
        47.0004         34.5004
  23548847.7444    -131384.00449   -100012.31746                  23548846.8304
        43.7504         25.2504
  22064749.1544    -816617.36749   -621718.43747                  22064747.2324
        48.7504         36.5004
  20614575.5354    -170509.74649   -130044.96648                  20614573.4304
        52.5004         42.2504
  21317199.2814    1024261.02749    779432.24548                  21317196.4694
        52.2504         39.7504
  21147731.0334    1004132.05149    765540.16748                  21147727.7184
        52.5004         40.7504
  20954762.7084     383070.44949    291197.17448                  20954758.5014
        52.7504         42.7504
 04  7  7 16 39 20.0010000  0  7G 3G 9G14G15G18G21G22
  22327101.9694       2223.59049      1850.59947                  22327100.4374
        48.0004         35.5004
  23548389.9504    -133788.74249   -101886.16847                  23548389.3394
        43.5004         27.0004
  22061169.6554    -835427.62549   -636375.77747                  22061167.8774
        49.2504         37.2504
  20613861.3464    -174262.40249   -132969.10048                  20613858.9534
        53.0004         43.0004
  21321787.6604    1048374.28549    798221.78548                  21321784.4394
        51.2504         40.5004
  21152316.8084    1028230.48049    784318.14448                  21152313.1704
        52.0004         40.5004
  20956511.8474     392261.71549    298359.19648                  20956507.2414
        52.5004         43.0004
 04  7  7 16 39 30.0010000  0  7G 3G 9G14G15G18G21G22
  22327284.9834       3183.11349      2598.27747                  22327283.4794
        47.0004         35.0004
  23547940.3174    -136151.57849   -103727.33646                  23547939.2234
        43.0004         25.5004
  22057595.7324    -854208.60949   -651010.30847                  22057593.6684
        49.0004         37.5004
  20613151.2444    -177993.23449   -135876.25648                  20613149.3894
        52.5004         43.5004
  21326377.6464    1072495.62549    817017.63048                  21326374.8634
        51.5004         40.7504
  21156908.4674    1052359.44149    803119.92148                  21156904.8284
        52.0004         40.7504
  20958263.9864     401469.26649    305533.90348                  20958259.5514
        52.2504         43.2504
 04  7  7 16 39 40.0010000  0  7G 3G 9G14G15G18G21G22
  22327476.5084       4193.50049      3385.59047                  22327475.5754
        45.2504         35.2504
  23547499.2314    -138471.29349   -105534.91247                  23547498.3464
        43.7504         26.5004
  22054027.5404    -872959.08649   -665621.06547                  22054025.9544
        47.0004         37.2504
  20612445.6204    -181701.08649   -138765.49148                  20612442.9894
        52.7504         43.2504
  21330969.8404    1096626.12949    835820.60748                  21330966.6424
        52.0004         41.0004
  21161505.7934    1076520.03949    821946.35248                  21161502.9704
        51.7504         41.0004
  20960019.4504     410694.09449    312722.08148                  20960014.9434
        52.5004         43.5004
 04  7  7 16 39 50.0010000  0  7G 3G 9G14G15G18G21G22
  22327678.2334       5251.83249      4210.26747                  22327677.1374
        47.5004         35.0004
  23547065.2984    -140750.76649   -107311.11847                  23547064.1504
        44.2504         26.5004
  22050464.9074    -891681.84849   -680210.20947                  22050462.6974
        49.2504         37.0004
  20611744.0544    -185388.84849   -141639.06548                  20611741.5914
        53.2504         43.5004
  21335562.7994    1120762.86349    854628.45348                  21335559.9054
        52.2504         40.7504
  21166109.0964    1100709.34449    840795.14848                  21166105.9584
        52.2504         40.7504
  20961777.6244     419933.29749    319921.47248                  20961773.2624
        52.2504         43.2504
 04  7  7 16 40  0.0010000  0  7G 3G 9G14G15G18G21G22
  22327888.3754       6355.01249      5069.88047                  22327886.7244
        47.5004         35.0004
  23546638.8094    -142993.08249   -109058.37447                  23546637.8304
        44.0004         28.0004
  22046906.8494    -910380.03949   -694780.22647                  22046904.6314
        48.7504         37.0004
  20611045.5464    -189059.61349   -144499.40548                  20611042.9744
        52.2504         43.0004
  21340156.5054    1144902.48049    873438.52848                  21340153.5744
        51.7504         41.0004
  21170717.3454    1124924.12149    859663.79548                  21170714.1194
        52.0004         41.2504
  20963538.0434     429183.61349    327129.50348                  20963533.7414
        52.7504         43.0004
 04  7  7 16 40 10.0010000  0  7G 3G 9G14G15G18G21G22
  22328107.9374       7508.84449      5968.97247                  22328106.3084
        48.2504         35.5004
  23546220.2754    -145192.35549   -110772.08147                  23546219.8184
        43.5004         28.5004
  22043354.5414    -929047.82449   -709326.53147                  22043352.3544
        49.0004         37.5004
  20610351.3644    -192707.52349   -147341.91848                  20610348.9884
        53.0004         43.2504
  21344751.8954    1169050.85249    892255.43548                  21344748.4664
        52.0004         41.0004
  21175330.9354    1149170.29349    878556.91048                  21175327.7194
        52.2504         41.0004
  20965301.5274     438450.85249    334350.72648                  20965297.2024
        52.7504         43.5004
 04  7  7 16 40 20.0010000  0  7G 3G 9G14G15G18G21G22
  22328336.5144       8710.69549      6905.50747                  22328335.3214
        47.2504         34.5004
  23545809.1014    -147351.08249   -112454.23247                  23545808.7674
        44.2504         27.5004
  22039807.3584    -947687.69149   -723851.09547                  22039805.3284
        49.0004         37.7504
  20609660.8304    -196335.11349   -150168.61148                  20609658.6374
        52.5004         43.0004
  21349348.3724    1193205.27749    911077.06248                  21349345.2804
        52.2504         41.0004
  21179950.2904    1173445.19549    897472.41148                  21179947.2684
        52.2504         40.0004
  20967067.7644     447732.35249    341583.06548                  20967063.3274
        52.7504         43.0004
 04  7  7 16 40 30.0010000  0  7G 3G 9G14G15G18G21G22
  22328574.6274       9962.02749      7880.54147                  22328573.5004
        47.5004         34.7504
  23545406.6484    -149467.80549   -114103.62047                  23545406.7014
        44.0004         28.5004
  22036266.0864    -966298.21949   -738352.81647                  22036263.9704
        48.7504         37.5004
  20608974.8524    -199940.94949   -152978.36348                  20608972.1974
        53.2504         43.0004
  21353946.2044    1217367.05549    929904.41048                  21353942.8954
        51.7504         40.7504
  21184575.6394    1197750.18449    916411.34048                  21184572.3434
        52.0004         40.5004
  20968836.8664     457029.44149    348827.55148                  20968832.6114
        52.5004         43.0004
 04  7  7 16 40 40.0010000  0  7G 3G 9G14G15G18G21G22
  22328821.1054      11257.06649      8889.67147                  22328819.5844
        48.5004         35.0004
  23545010.6324    -151548.19949   -115724.70247                  23545010.5764
        44.5004         27.7504
  22032729.3454    -984885.09449   -752836.07047                  22032726.8894
        49.2504         37.5004
  20608292.0174    -203530.78149   -155775.63248                  20608289.6494
        52.5004         43.0004
  21358544.2054    1241530.34849    948732.94648                  21358540.9214
        50.7504         40.7504
  21189205.3374    1222079.50049    935369.24248                  21189201.9144
        51.7504         41.0004
  20970607.8754     466336.35549    356079.68848                  20970603.2394
        53.0004         43.0004
 04  7  7 16 40 50.0010000  0  7G 3G 9G14G15G18G21G22
  22329075.8824      12596.87149      9933.67647                  22329075.0414
        48.5004         35.0004
  23544621.6444    -153591.14149   -117316.59847                  23544621.4324
        42.5004         28.7504
  22029196.9404   -1003447.20349   -767300.03847                  22029194.6274
        48.7504         37.5004
  20607612.0904    -207103.41049   -158559.48548                  20607609.8164
        52.5004         43.0004
  21363143.1084    1265696.29749    967563.55048                  21363139.6294
        50.5004         41.0004
  21193839.6384    1246434.18449    954346.91248                  21193836.5254
        51.2504         41.0004
  20972381.0684     475654.07049    363340.25548                  20972376.6114
        53.2504         43.5004
 04  7  7 16 41  0.0010000  0  7G 3G 9G14G15G18G21G22
  22329339.0794      13978.79749     11010.50247                  22329338.1034
        49.0004         35.7504
  23544239.7494    -155599.19549   -118881.34547                  23544239.2564
        42.7504         28.5004
  22025668.9644   -1021987.09049   -781746.69947                  22025666.6334
        49.5004         38.0004
  20606934.6794    -210661.46949   -161331.99148                  20606933.0124
        53.5004         43.2504
  21367741.6204    1289862.05949    986394.00148                  21367738.5914
        49.5004         41.0004
  21198478.5774    1270811.62949    973342.30248                  21198475.2814
        49.7504         41.5004
  20974155.6714     484979.87149    370607.10448                  20974150.9414
        53.0004         43.2504
 04  7  7 16 41 10.0010000  0  7G 3G 9G14G15G18G21G22
  22329610.2394      15404.16849     12121.17847                  22329608.9864
        48.5004         35.7504
  23543864.0004    -157570.97349   -120417.80147                  23543863.5604
        43.5004         29.0004
  22022145.3664   -1040503.36349   -796174.95847                  22022143.3894
        49.5004         37.7504
  20606260.9134    -214203.60949   -164092.10648                  20606259.0174
        53.0004         43.0004
  21372340.4684    1314028.97349   1005225.36348                  21372337.2424
        48.0004         41.2504
  21203122.1354    1295213.12149    992356.44648                  21203119.3514
        48.2504         41.5004
  20975931.9134     494315.02049    377881.23948                  20975927.5134
        52.7504         43.5004
 04  7  7 16 41 20.0010000  0  7G 3G 9G14G15G18G21G22
  22329890.4214      16875.15649     13267.39447                  22329889.1304
        49.2504         35.0004
  23543497.0184    -159504.32849   -121924.28547                  23543495.7734
        45.0004         28.0004
  22018626.0244   -1058993.92249   -810583.17847                  22018624.6514
        50.2504         37.7504
  20605590.2514    -217727.66449   -166838.12448                  20605587.6354
        53.2504         43.0004
  21376939.7624    1338198.98849   1024059.13748                  21376937.0194
        47.0004         40.2504
  21207770.7234    1319640.78149   1011390.98348                  21207767.7464
        47.5004         41.0004
  20977710.9724     503661.53949    385164.24948                  20977706.1814
        52.2504         43.0004
 04  7  7 16 41 30.0010000  0  7G 3G 9G14G15G18G21G22
  22330178.4824      18390.07049     14447.84547                  22330177.0834
        49.2504         35.2504
  23543135.8564    -161400.80949   -123402.05347                  23543135.2024
        44.5004         28.5004
  22015112.9294   -1077460.34849   -824972.59447                  22015110.5054
        50.7504         37.2504
  20604922.9064    -221235.25849   -169571.30748                  20604920.6454
        52.7504         43.0004
  21381539.6404    1362370.57049   1042894.13048                  21381536.0694
        47.0004         40.2504
  21212423.6064    1344092.91049   1030444.57248                  21212420.7654
        47.5004         41.0004
  20979490.9084     513017.77349    392454.82048                  20979486.9524
        53.2504         42.7504
 04  7  7 16 41 40.0010000  0  7G 3G 9G14G15G18G21G22
  22330474.8944      19948.14849     15661.92647                  22330473.7114
        49.2504         35.5004
  23542781.9074    -163261.11349   -124851.63247                  23542781.0834
        43.0004         26.5004
  22011602.6084   -1095903.38349   -839343.78147                  22011600.7714
        50.0004         37.0004
  20604258.1734    -224727.07849   -172292.20748                  20604256.1504
        52.5004         43.0004
  21386139.4234    1386542.80149   1061729.62448                  21386135.9194
        47.0004         40.0004
  21217081.2974    1368568.71949   1049516.62448                  21217078.3644
        47.2504         41.0004
  20981273.3024     522382.89149    399752.31248                  20981268.8834
        52.7504         43.0004
 04  7  7 16 41 50.0010000  0  7G 3G 9G14G15G18G21G22
  22330779.3374      21547.75849     16908.39147                  22330778.1054
        48.5004         36.0004
  23542434.3244    -165086.88749   -126274.30847                  23542433.7094
        45.0004         28.0004
  22008097.7594   -1114324.53149   -853697.91247                  22008095.4684
        49.7504         37.5004
  20603596.4354    -228204.75049   -175002.07748                  20603594.4244
        53.5004         43.0004
  21390738.7664    1410714.00849   1080564.32148                  21390735.6904
        47.0004         41.0004
  21221743.2044    1393066.69949   1068605.95348                  21221740.0474
        47.2504         41.5004
  20983056.7484     531755.22749    407055.44048                  20983052.9884
        53.5004         43.5004
 04  7  7 16 42  0.0010000  0  7G 3G 9G14G15G18G21G22
  22331091.6244      23188.23049     18186.68147                  22331090.6374
        49.0004         36.5004
  23542093.0604    -166878.64549   -127670.48447                  23542092.8584
        45.0004         29.0004
  22004596.4954   -1132724.39849   -868035.45347                  22004594.3734
        49.5004         37.5004
  20602937.1474    -231668.80949   -177701.34948                  20602935.1454
        53.2504         43.5004
  21395338.5024    1434883.50849   1099397.69248                  21395335.2234
        47.5004         41.2504
  21226408.8304    1417586.10949   1087711.97648                  21226405.4774
        48.0004         40.7504
  20984841.5374     541134.05949    414363.61048                  20984837.4354
        52.7504         43.5004
 04  7  7 16 42 10.0010000  0  7G 3G 9G14G15G18G21G22
  22331411.2604      24870.20749     19497.30747                  22331410.4614
        49.0004         37.0004
  23541758.3384    -168635.66049   -129039.58047                  23541758.6884
        43.5004         29.2504
  22001099.0584   -1151102.32449   -882355.91447                  22001097.0384
        49.5004         37.5004
  20602280.6184    -235118.63749   -180389.51548                  20602278.7594
        52.5004         44.0004
  21399937.2924    1459051.80949   1118230.13948                  21399934.1514
        49.7504         42.0004
  21231079.0024    1442127.53549   1106835.14548                  21231076.1034
        50.7504         41.5004
  20986627.5944     550519.96949    421677.30948                  20986623.2914
        53.2504         44.0004
 04  7  7 16 42 20.0010000  0  7G 3G 9G14G15G18G21G22
  22331738.4024      26589.48049     20836.99647                  22331737.8674
        47.7504         36.0004
  23541430.0314    -170362.07849   -130384.85747                  23541430.1714
        44.0004         28.0004
  21997604.9164   -1169462.48449   -896662.51747                  21997603.0324
        49.0004         37.2504
  20601625.8424    -238558.39549   -183069.84648                  20601623.8154
        52.2504         43.0004
  21404535.5884    1483214.59849   1137058.27648                  21404532.0354
        51.5004         40.7504
  21235752.2694    1466686.77049   1125972.21348                  21235749.3234
        52.2504         40.7504
  20988413.9874     559908.59849    428993.13548                  20988409.8274
        52.7504         43.0004
 04  7  7 16 42 30.0010000  0  7G 3G 9G14G15G18G21G22
  22332073.2154      28345.82049     22205.58847                  22332072.3774
        48.0004         35.5004
  23541107.9654    -172058.10249   -131706.43247                  23541107.6114
        44.2504         29.0004
  21994114.4814   -1187805.04749   -910955.42247                  21994112.3374
        48.7504         37.0004
  20600973.3774    -241988.28549   -185742.49548                  20600971.2804
        53.0004         43.5004
  21409132.5224    1507371.60949   1155881.91148                  21409129.1494
        50.7504         40.5004
  21240429.2844    1491263.54749   1145122.94548                  21240426.1894
        50.5004         41.2504
  20990201.1514     569299.73849    436310.89948                  20990196.8974
        53.0004         43.5004
 04  7  7 16 42 40.0010000  0  7G 3G 9G14G15G18G21G22
  22332414.9184      30141.95349     23605.15547                  22332413.4444
        48.0004         35.0004
  23540791.4364    -173720.94549   -133002.15547                  23540791.0334
        44.5004         28.0004
  21990627.8424   -1206127.27049   -925232.48547                  21990625.9654
        50.0004         37.7504
  20600323.0584    -245405.53149   -188405.28648                  20600321.2954
        52.7504         43.0004
  21413729.2694    1531525.53949   1174703.14648                  21413725.8534
        48.0004         41.2504
  21245110.0594    1515860.48449   1164289.37548                  21245106.7594
        48.0004         41.0004
  20991989.2794     578696.01649    443632.66048                  20991984.8294
        52.7504         43.0004
 04  7  7 16 42 50.0010000  0  7G 3G 9G14G15G18G21G22
  22332763.9414      31976.58249     25034.75147                  22332762.4594
        48.5004         34.0004
  23540480.4864    -175351.76249   -134272.90147                  23540480.0224
        44.5004         26.5004
  21987144.7944   -1224430.27749   -939494.55847                  21987143.3004
        49.5004         36.7504
  20599675.0154    -248811.35249   -191059.17248                  20599672.9074
        53.0004         42.5004
  21418324.3044    1555675.07849   1193520.96448                  21418321.0704
        47.0004         40.0004
  21249794.1774    1540476.32049   1183470.51948                  21249791.0544
        47.5004         40.2504
  20993777.9164     588096.14849    450957.45248                  20993773.7104
        52.2504         42.2504
 04  7  7 16 43  0.0010000  0  7G 3G 9G14G15G18G21G22
  22333120.0874      33849.61349     26494.26247                  22333118.8804
        48.5004         35.7504
  23540176.8914    -176950.64849   -135518.77647                  23540175.8494
        45.0004         27.5004
  21983665.6784   -1242714.13749   -953741.68847                  21983663.9074
        48.5004         38.0004
  20599029.2204    -252205.79349   -193704.18148                  20599026.7174
        52.0004         43.0004
  21422918.6704    1579819.98849   1212335.17248                  21422915.4824
        47.5004         41.2504
  21254482.2194    1565110.97749   1202666.35948                  21254479.0704
        47.7504         41.2504
  20995567.2544     597499.97749    458285.12048                  20995563.1404
        53.0004         43.2504
 04  7  7 16 43 10.0010000  0  7G 3G 9G14G15G18G21G22
  22333483.7254      35760.29749     27983.09347                  22333482.5774
        48.0004         35.5004
  23539877.9464    -178518.37549   -136740.36447                  23539877.4734
        45.0004         28.0004
  21980189.8764   -1260979.62149   -967974.53447                  21980187.9084
        49.2504         38.0004
  20598385.2844    -255589.57049   -196340.89148                  20598382.9424
        52.7504         43.5004
  21427512.4954    1603959.53949   1231145.21448                  21427509.6604
        51.5004         40.5004
  21259173.5824    1589763.74249   1221876.29448                  21259170.4834
        51.5004         40.7504
  20997357.3954     606906.59449    465614.94348                  20997352.8994
        52.0004         43.0004
 04  7  7 16 43 20.0010000  0  7G 3G 9G14G15G18G21G22
  22333855.3314      37710.14549     29502.44747                  22333853.6664
        47.0004         35.5004
  23539586.0704    -180053.23849   -137936.40047                  23539585.3924
        44.7504         27.5004
  21976717.8134   -1279225.05149   -982191.75147                  21976715.6924
        49.2504         38.2504
  20597743.7784    -258961.13349   -198968.08348                  20597741.3124
        52.7504         43.7504
  21432105.2074    1628095.18049   1249952.20048                  21432102.2714
        48.0004         41.0004
  21263868.3454    1614436.21549   1241101.59348                  21263865.3834
        47.2504         41.5004
  20999148.3734     616317.51649    472948.12748                  20999143.7014
        53.0004         43.5004
 04  7  7 16 43 30.0010000  0  7G 3G 9G14G15G18G21G22
  22334233.5574      39697.66049     31051.17147                  22334232.2174
        48.0004         35.5004
  23539300.0564    -181556.80149   -139107.96647                  23539298.8454
        44.0004         26.5004
  21973249.1204   -1297452.00849   -996394.56547                  21973247.3044
        49.2504         38.0004
  20597103.9594    -262321.98449   -201586.92748                  20597101.5964
        52.7504         43.5004
  21436697.0914    1652225.27749   1268754.86248                  21436693.9094
        48.0004         40.5004
  21268566.8504    1639126.69149   1260340.91248                  21268563.9654
        49.0004         41.7504
  21000939.6544     625731.12949    480283.41548                  21000935.2604
        52.5004         43.0004
 04  7  7 16 43 40.0010000  0  7G 3G 9G14G15G18G21G22
  22334618.1524      41721.25049     32628.00047                  22334616.7424
        47.7504         35.2504
  23539018.6454    -183030.51649   -140256.32447                  23539018.7594
        43.0004         27.0004
  21969784.2044   -1315661.93449  -1010584.11547                  21969782.5054
        48.7504         37.7504
  20596466.3134    -265673.64849   -204198.61048                  20596463.6004
        53.2504         43.0004
  21441287.5084    1676348.19549   1287551.93748                  21441284.3914
        51.5004         41.0004
  21273268.3484    1663833.62949   1279593.07248                  21273265.3564
        51.2504         41.2504
  21002731.1204     635145.82049    487619.53848                  21002726.6754
        53.2504         43.0004
 04  7  7 16 43 50.0010000  0  7G 3G 9G14G15G18G21G22
  22335010.6124      43783.36349     34234.83847                  22335009.2834
        48.0004         35.2504
  23538745.2754    -184471.89549   -141379.47347                  23538744.6694
        44.0004         27.2504
  21966322.6324   -1333852.34849  -1024758.46047                  21966320.8454
        49.5004         37.5004
  20595830.4694    -269013.60249   -206801.17048                  20595828.5364
        53.5004         43.2504
  21445877.1534    1700466.29749   1306345.24648                  21445874.1584
        47.5004         40.5004
  21277973.6574    1688559.45749   1298859.93148                  21277970.5904
        47.5004         41.2504
  21004523.5754     644563.87949    494958.28448                  21004519.1414
        52.2504         43.0004
 04  7  7 16 44  0.0010000  0  7G 3G 9G14G15G18G21G22
  22335410.6964      45884.87949     35872.38147                  22335409.2414
        48.0004         35.0004
  23538477.2244    -185879.94949   -142476.64247                  23538477.1074
        43.5004         26.5004
  21962864.9114   -1352022.34849  -1038916.88747                  21962862.7044
        49.0004         37.0004
  20595197.3284    -272340.87549   -209393.84848                  20595195.4104
        53.0004         42.5004
  21450465.7964    1724580.39849   1325135.45148                  21450463.0054
        50.7504         40.2504
  21282682.4884    1713305.02349   1318142.17448                  21282679.3564
        51.2504         40.5004
  21006316.5374     653986.28149    502300.42248                  21006312.1074
        52.5004         42.5004
 04  7  7 16 44 10.0010000  0  7G 3G 9G14G15G18G21G22
  22335817.9744      48024.28149     37539.45247                  22335816.0664
        47.5004         35.5004
  23538215.3934    -187256.09449   -143548.96847                  23538215.1874
        44.7504         28.7504
  21959411.0674   -1370173.39849  -1053060.55347                  21959408.8534
        48.5004         37.7504
  20594566.5794    -275656.93749   -211977.79048                  20594564.4524
        52.5004         43.2504
  21455053.4734    1748688.93449   1343921.32348                  21455050.6544
        50.0004         41.0004
  21287395.1124    1738068.82449   1337438.63348                  21287392.0394
        49.0004         40.7504
  21008110.0814     663411.45749    509644.71948                  21008106.1584
        52.7504         43.2504
 04  7  7 16 44 20.0010000  0  7G 3G 9G14G15G18G21G22
  22336232.1974      50202.04749     39236.41747                  22336230.9924
        46.7504         35.5004
  23537960.0384    -188599.82049   -144596.01847                  23537959.6184
        45.0004         28.0004
  21955960.5514   -1388304.92249  -1067189.00547                  21955958.6154
        48.0004         37.5004
  20593937.6804    -278961.31649   -214552.62648                  20593935.6744
        53.0004         43.2504
  21459640.2754    1772792.28149   1362703.14148                  21459636.9734
        47.7504         41.2504
  21292110.4184    1762851.26249   1356749.62048                  21292107.6964
        47.7504         40.7504
  21009903.9594     672839.78549    516991.46548                  21009899.9284
        52.5004         43.2504
 04  7  7 16 44 30.0010000  0  7G 3G 9G14G15G18G21G22
  22336653.4144      52416.75449     40962.16547                  22336652.2644
        48.5004         35.7504
  23537710.2434    -189912.52749   -145618.92147                  23537709.8624
        44.5004         29.0004
  21952513.7734   -1406418.31249  -1081303.32547                  21952511.7664
        49.0004         38.7504
  20593310.8304    -282255.39149   -217119.43348                  20593308.1884
        52.5004         43.7504
  21464226.0094    1796889.15649   1381479.92748                  21464222.5104
        48.0004         41.0004
  21296830.0384    1787650.91049   1376074.02248                  21296826.7144
        48.0004         41.2504
  21011698.6664     682269.78949    524339.52948                  21011694.7904
        52.7504         43.5004
 04  7  7 16 44 40.0010000  0  8G 3G 9G14G15G18G21G22G19
  22337083.3594      54675.00449     42721.84147                  22337082.0394
        48.5004         36.0004
  23537467.5904    -191187.58649   -146612.47147                  23537466.7454
        44.7504         28.0004
  21949071.3424   -1424507.00049  -1095398.40547                  21949069.7964
        49.5004         38.5004
  20592687.1364    -285532.56649   -219673.07848                  20592684.6104
        53.0004         43.2504
  21468811.3004    1820985.88749   1400256.58348                  21468807.9854
        49.5004         40.5004
  21301553.6114    1812474.30149   1395416.90548                  21301550.8424
        49.7504         41.0004
  21013494.6524     691707.83649    531693.84548                  21013490.6524
        53.0004         43.2504
  24699058.9444      -8593.11759
        42.2504
 04  7  7 16 44 50.0010000  0  8G 3G 9G14G15G18G21G22G19
  22337520.5424      56972.80549     44512.33847                  22337519.0394
        47.5004         36.0004
  23537231.4344    -192428.85249   -147579.67347                  23537230.3914
        43.2504         27.5004
  21945633.3744   -1442574.81649  -1109477.21747                  21945631.4234
        49.5004         38.5004
  20592066.1244    -288796.66049   -222216.52448                  20592063.7144
        52.7504         43.2504
  21473395.9704    1845078.55949   1419030.09648                  21473392.4954
        51.5004         40.7504
  21306281.1244    1837317.63749   1414775.33748                  21306278.4164
        51.7504         41.0004
  21015291.5434     701150.12949    539051.47548                  21015287.2924
        52.5004         43.5004
  24695344.4854     -28114.57449    -17642.29456                  24695342.8834
        43.5004         25.2504
 04  7  7 16 45  0.0010000  0  8G 3G 9G14G15G18G21G22G19
  22337964.8894      59310.56649     46333.97547                  22337963.8624
        47.5004         35.5004
  23537001.8074    -193635.90649   -148520.24847                  23537000.6064
        42.5004         28.0004
  21942199.1944   -1460621.33649  -1123539.41947                  21942196.8674
        49.0004         39.0004
  20591447.5184    -292047.30549   -224749.48748                  20591445.4974
        52.5004         43.5004
  21477979.9514    1869167.39849   1437800.60848                  21477976.6574
        50.7504         41.0004
  21311012.2634    1862181.01249   1434149.39548                  21311009.6124
        50.7504         41.0004
  21017088.9904     710596.89549    546412.59948                  21017084.8164
        52.0004         43.5004
  24691631.4754     -47624.18749    -32844.59947                  24691629.8464
        42.7504         25.7504
 04  7  7 16 45 10.0010000  0  8G 3G 9G14G15G18G21G22G19
  22338417.8234      61688.32849     48186.77447                  22338416.3374
        47.0004         35.0004
  23536778.2684    -194808.54749   -149433.98147                  23536777.7514
        43.5004         27.0004
  21938769.2924   -1478646.45349  -1137584.95947                  21938767.1474
        49.0004         37.5004
  20590831.5474    -295284.34449   -227271.85848                  20590829.6264
        52.7504         43.0004
  21482563.0934    1893252.47349   1456568.19848                  21482559.9774
        51.0004         39.7504
  21315747.6654    1887064.69149   1453539.26448                  21315744.7344
        51.7504         40.5004
  21018887.5194     720048.13749    553777.20848                  21018883.7384
        52.7504         43.0004
  24687921.1144     -67121.88349    -48037.59047                  24687919.4144
        43.2504         25.7504
 04  7  7 16 45 20.0010000  0  8G 3G 9G14G15G18G21G22G19
  22338879.0974      64110.43849     50074.14447                  22338877.3494
        46.5004         35.5004
  23536562.7744    -195942.48449   -150317.56347                  23536562.1704
        44.2504         29.0004
  21935344.0354   -1496645.76249  -1151610.37847                  21935341.7524
        47.5004         37.7504
  20590219.0144    -298503.49649   -229780.28548                  20590217.0624
        52.5004         43.2504
  21487146.3534    1917338.01649   1475336.14048                  21487143.5084
        51.5004         40.5004
  21320487.3794    1911972.82449   1472948.18448                  21320484.4954
        52.0004         40.5004
  21020688.0884     729508.16049    561148.64548                  21020683.4114
        53.0004         43.5004
  24684214.0384     -86603.17249    -63217.83347                  24684212.2024
        43.5004         26.2504
 04  7  7 16 45 30.0010000  0  8G 3G 9G14G15G18G21G22G19
  22339347.6104      66575.56649     51995.01247                  22339346.2904
        46.7504         36.7504
  23536354.4344    -197038.87549   -151171.89047                  23536353.4874
        44.5004         30.0004
  21931923.3314   -1514620.49249  -1165616.66147                  21931921.9934
        48.2504         37.5004
  20589609.2094    -301705.95749   -232275.69648                  20589607.5704
        52.5004         43.5004
  21491729.6734    1941422.70349   1494103.42148                  21491726.7754
        51.2504         40.7504
  21325231.8644    1936904.34049   1492375.35148                  21325228.9614
        51.5004         40.5004
  21022489.1194     738975.63349    568525.91448                  21022485.1234
        53.0004         43.5004
  24680509.8834    -106069.22749    -78386.19047                  24680507.8084
        44.2504         26.5004
 04  7  7 16 45 40.0010000  0  8G 3G 9G14G15G18G21G22G19
  22339824.9314      69082.76649     53948.66147                  22339823.7484
        47.2504         36.5004
  23536152.5914    -198098.65649   -151997.70147                  23536152.0314
        41.7504         29.7504
  21928507.6454   -1532571.50449  -1179604.45947                  21928505.7374
        49.2504         38.7504
  20589003.0434    -304892.61749   -234758.82348                  20589000.7134
        52.5004         43.5004
  21496312.5924    1965505.55149   1512869.25248                  21496309.3074
        52.0004         41.2504
  21329980.2024    1961858.28549   1511819.95848                  21329977.3064
        51.5004         40.5004
  21024292.2064     748449.54349    575908.16348                  21024287.9534
        52.0004         43.7504
  24676808.5184    -125520.95749    -93543.38647                  24676806.1034
        44.0004         26.7504
 04  7  7 16 45 50.0010000  0  8G 3G 9G14G15G18G21G22G19
  22340310.0014      71631.45349     55934.67047                  22340308.8224
        47.0004         37.0004
  23535958.2074    -199122.33649   -152795.36547                  23535957.6314
        43.0004         29.7504
  21925095.9074   -1550499.33649  -1193574.18547                  21925094.1664
        48.2504         38.2504
  20588399.6924    -308064.04349   -237230.05648                  20588397.6554
        52.2504         43.5004
  21500894.7174    1989585.99649   1531633.23848                  21500891.3384
        52.0004         41.2504
  21334733.2914    1986833.98849   1531281.53748                  21334730.2064
        51.2504         40.0004
  21026096.3954     757929.28549    583294.98348                  21026091.8974
        52.0004         43.7504
  24673108.9104    -144958.82049   -108689.76847                  24673107.8044
        44.7504         26.5004
 04  7  7 16 46  0.0010000  0  8G 3G 9G14G15G18G21G22G19
  22340803.4674      74225.45349     57955.96447                  22340802.7384
        46.2504         36.2504
  23535770.4214    -200106.05949   -153561.90147                  23535770.7554
        44.7504         30.0004
  21921689.5124   -1568400.16449  -1207522.86747                  21921687.5304
        48.0004         38.0004
  20587799.6284    -311216.34849   -239686.39248                  20587797.9254
        52.0004         43.2504
  21505477.4264    2013667.75849   1550398.24248                  21505474.2474
        51.7504         41.0004
  21339490.5674    2011835.18449   1550762.99048                  21339487.8184
        51.2504         40.5004
  21027901.9064     767418.64149    590689.29948                  21027897.5444
        52.7504         43.0004
  24669413.8344    -164378.92649   -123822.32447                  24669412.1144
        44.0004         26.2504
 04  7  7 16 46 10.0010000  0  8G 3G 9G14G15G18G21G22G19
  22341305.2264      76862.71949     60010.97447                  22341304.2464
        48.0004         35.7504
  23535590.1234    -201051.76649   -154298.81947                  23535590.0754
        41.5004         29.0004
  21918287.8424   -1586275.93049  -1221452.02347                  21918285.8714
        49.0004         38.2504
  20587202.9544    -314351.52349   -242129.38448                  20587201.0424
        52.5004         43.2504
  21510059.9544    2037748.77749   1569162.67048                  21510056.7564
        51.7504         40.5004
  21344252.6774    2036859.93849   1570262.78748                  21344249.3154
        52.2504         40.5004
  21029709.0844     776915.42249    598089.38048                  21029704.8294
        52.0004         43.2504
  24665721.5314    -183783.25849   -138942.56847                  24665719.4884
        43.7504         26.7504
 04  7  7 16 46 20.0010000  0  8G 3G 9G14G15G18G21G22G19
  22341816.2334      79547.91449     62103.34747                  22341815.5124
        48.5004         35.2504
  23535419.2574    -201954.80549   -155002.46747                  23535418.2564
        43.0004         28.2504
  21914891.5064   -1604122.00049  -1235358.03247                  21914889.5044
        49.5004         38.0004
  20586610.8474    -317464.94149   -244555.41548                  20586608.3954
        52.5004         43.0004
  21514643.1084    2061833.59449   1587930.05548                  21514640.6274
        51.5004         40.0004
  21349019.9884    2061912.72349   1589784.43048                  21349017.0974
        51.5004         39.7504
  21031518.4074     786424.19949    605498.82048                  21031513.6904
        52.5004         42.7504
  24662032.5394    -203167.23049   -154046.99546                  24662030.8044
        43.2504         25.5004
 04  7  7 16 46 30.0010000  0  8G 3G 9G14G15G18G21G22G19
  22342336.4504      82281.18449     64233.14647                  22342335.1314
        48.2504         35.5004
  23535255.0064    -202814.80949   -155672.59847                  23535253.6804
        43.0004         29.5004
  21911501.3814   -1621938.05149  -1249240.68447                  21911499.2714
        48.7504         38.0004
  20586022.1924    -320556.21149   -246964.21048                  20586020.1124
        53.0004         43.2504
  21519227.2484    2085922.30149   1606700.45948                  21519223.9214
        52.0004         40.5004
  21353792.8964    2086993.85249   1609328.15448                  21353789.6544
        51.2504         39.7504
  21033330.1044     795945.25049    612917.81648                  21033325.9734
        52.5004         42.7504
  24658348.2674    -222530.46949   -169135.18447                  24658346.6834
        42.7504         26.2504
 04  7  7 16 46 40.0010000  0  8G 3G 9G14G15G18G21G22G19
  22342865.2584      85061.23049     66399.41847                  22342864.5354
        47.5004         36.2504
  23535099.3884    -203633.19949   -156310.29247                  23535098.4034
        43.5004         28.7504
  21908116.6274   -1639725.42649  -1263100.95947                  21908114.6734
        48.7504         38.2504
  20585438.0414    -323626.75049   -249356.82948                  20585435.4714
        53.0004         43.5004
  21523811.2274    2110013.55149   1625472.85648                  21523808.3344
        51.5004         41.0004
  21358570.8274    2112101.87949   1628892.84648                  21358567.7674
        51.5004         40.0004
  21035144.2534     805477.06349    620345.20148                  21035139.5484
        52.5004         43.7504
  24654667.2594    -241874.31249   -184208.31947                  24654664.9344
        43.2504         26.2504
 04  7  7 16 46 50.0010000  0  8G 3G 9G14G15G18G21G22G19
  22343404.5594      87893.00449     68605.99447                  22343403.7664
        47.2504         36.2504
  23534952.9134    -204404.80549   -156911.53547                  23534951.5964
        42.0004         29.5004
  21904738.2494   -1657479.04749  -1276934.93647                  21904736.2194
        49.5004         38.2504
  20584858.8074    -326671.50049   -251729.35348                  20584856.6974
        53.0004         43.7504
  21528397.3334    2134112.20749   1644251.02348                  21528394.3464
        51.2504         40.5004
  21363354.6134    2137241.83649   1648482.41748                  21363351.6264
        51.0004         39.7504
  21036960.9584     815024.60249    627784.85248                  21036956.3504
        52.7504         43.0004
  24650990.7574    -261193.59049   -199262.27247                  24650988.8794
        42.5004         25.7504
 04  7  7 16 47  0.0010000  0  8G 3G 9G14G15G18G21G22G19
  22343952.4764      90773.87549     70850.82747                  22343951.8204
        47.7504         36.2504
  23534814.2234    -205132.32849   -157478.43547                  23534813.5314
        41.0004         29.5004
  21901365.6744   -1675201.56249  -1290744.69947                  21901363.2944
        50.0004         38.5004
  20584283.6564    -329693.10249   -254083.84948                  20584281.6454
        53.5004         44.0004
  21532984.1154    2158215.59449   1663032.88048                  21532981.1564
        52.5004         40.7504
  21368144.5784    2162410.97349   1668094.72148                  21368141.1904
        52.0004         40.0004
  21038780.5464     824585.09849    635234.58748                  21038776.1554
        52.5004         44.0004
  24647318.7794    -280491.02749   -214299.25047                  24647316.2274
        42.5004         25.7504
 04  7  7 16 47 10.0010000  0  8G 3G 9G14G15G18G21G22G19
  22344510.8884      93705.89849     73135.53147                  22344510.0494
        46.7504         36.0004
  23534684.1524    -205813.48849   -158009.20347                  23534683.6614
        41.7504         29.2504
  21897999.4424   -1692890.78549  -1304528.50247                  21897997.4264
        49.2504         38.5004
  20583713.5244    -332689.34049   -256418.57448                  20583711.4234
        52.7504         43.5004
  21537572.1704    2182325.77749   1681820.02848                  21537568.8334
        52.0004         40.0004
  21372940.0884    2187611.40649   1687731.41748                  21372936.8614
        52.0004         39.5004
  21040602.4914     834160.64849    642696.04048                  21040598.2644
        52.0004         43.0004
  24643650.8194    -299764.33249   -229317.39146                  24643648.7494
        42.0004         25.2504
 04  7  7 16 47 20.0010000  0  8G 3G 9G14G15G18G21G22G19
  22345078.2754      96689.78949     75460.63347                  22345077.6844
        47.5004         35.2504
  23534563.2654    -206447.56649   -158503.28747                  23534563.1794
        40.2504         28.7504
  21894639.8384   -1710546.03149  -1318285.82047                  21894637.8604
        49.2504         39.0004
  20583148.3314    -335659.45349   -258732.94548                  20583146.4184
        52.2504         43.5004
  21542161.3774    2206443.42649   1700612.99148                  21542158.4914
        51.7504         40.2504
  21377741.4434    2212843.77349   1707392.99848                  21377738.0554
        51.0004         39.7504
  21042427.7994     843751.89149    650169.74848                  21042423.5854
        52.0004         43.0004
  24639987.8684    -319012.75849   -244316.15746                  24639986.4234
        41.0004         25.5004
 04  7  7 16 47 30.0010000  0  8G 3G 9G14G15G18G21G22G19
  22345655.8944      99724.85249     77825.61647                  22345654.8044
        48.0004         35.0004
  23534451.5674    -207035.24649   -158961.21447                  23534451.5674
        42.0004         29.2504
  21891286.4404   -1728167.93049  -1332017.16547                  21891284.2604
        49.2504         38.0004
  20582588.2054    -338604.13349   -261027.49548                  20582585.7864
        53.0004         43.2504
  21546752.1034    2230567.68849   1719411.11448                  21546749.4294
        52.2504         40.0004
  21382548.9824    2238107.31349   1727078.85848                  21382545.6264
        51.7504         39.5004
  21044255.5354     853358.03149    657655.04648                  21044251.4474
        53.0004         43.0004
  24636329.2894    -338236.98849   -259296.05746                  24636328.2474
        41.2504         24.5004
 04  7  7 16 47 40.0010000  0  8G 3G 9G14G15G18G21G22G19
  22346242.9394     102809.80949     80229.47247                  22346241.5134
        48.7504         34.7504
  23534349.0084    -207577.68749   -159383.88447                  23534348.3894
        42.5004         29.5004
  21887939.2204   -1745757.69549  -1345723.47047                  21887937.2914
        50.2504         38.0004
  20582032.2464    -341524.59049   -263303.16648                  20582030.0424
        53.0004         43.0004
  21551343.5994    2254697.33249   1738213.42148                  21551341.1524
        51.7504         40.0004
  21387362.2694    2263400.87949   1746788.12547                  21387358.9994
        51.5004         39.0004
  21046086.2214     862977.77749    665150.94548                  21046082.0044
        52.5004         42.7504
  24632675.9554    -357438.21549   -274258.02746                  24632674.1014
        40.7504         25.5004
